Location: Walnut Point State Park
(39.6958°N, 88.0345°W)
Time: 13:24:07
(UTC-05:00)

Amateur Radio Satellites - All Passes

Search period start: 21 October 2014 12:54
Search period end: 22 October 2014 12:54
Location: Walnut Point State Park, 39.6958°N, 88.0345°W

Satellite Date Start Highest point End Downlink Frequencies (MHz)
Time Altitude Azimuth
Uribyol 2 21 Oct 12:59:20 13:02:44 18° 62° (ENE) 13:06:08 436.500 FM
ISS 21 Oct 13:01:15 13:03:01 14° 129° (SE) 13:04:48 145.800 FM
ITAMSAT 1 21 Oct 13:04:15 13:07:44 19° 63° (ENE) 13:11:15 435.822 SSB
AO-Echo 21 Oct 13:11:53 13:15:47 25° 66° (ENE) 13:19:47 ?
SO-50 21 Oct 13:27:42 13:31:49 38° 115° (ESE) 13:36:03 436.795 FM
Sapphire 21 Oct 13:31:38 13:36:44 39° 55° (NE) 13:41:48 437.095 MHz 1200 baud AX-25 AFSK
Oscar 19 21 Oct 13:38:42 13:43:53 89° 254° (WSW) 13:49:04 437.125 CW, 437.150 USB
AO-7 21 Oct 13:46:50 13:48:45 11° 44° (NE) 13:50:40 29.400 - 29.500 MHz
AO-27 21 Oct 13:47:04 13:52:00 46° 71° (ENE) 13:56:59 436.795 MHz FM
PCSat 21 Oct 13:54:28 13:59:53 65° 59° (ENE) 14:05:15 145.825 MHz
JAS-1B 21 Oct 14:04:13 14:10:26 73° 257° (WSW) 14:16:08 435.800 - 435.900 CW/SSB
Oscar 16 21 Oct 14:24:33 14:29:09 32° 263° (W) 14:33:46 437.025 USB, Beacon 2401.1428
ISS 21 Oct 14:36:03 14:39:21 61° 325° (NW) 14:42:40 145.800 FM
Uribyol 2 21 Oct 14:36:34 14:41:42 59° 259° (W) 14:46:53 436.500 FM
Oscar 10/S400 21 Oct 14:37:15 14:55:06 46° 156° (SSE) 15:22:59 145.825 - 145.975 CW/USB, Beacon 145.810 USB
Gurwin Techsat 1B 21 Oct 14:39:09 14:44:26 72° 74° (ENE) 14:49:44 435.225 FM
ITAMSAT 1 21 Oct 14:41:40 14:46:46 56° 259° (W) 14:51:54 435.822 SSB
KITSAT 1 21 Oct 14:42:04 14:49:15 34° 314° (NW) 14:56:29 435.175 FM
AO-Echo 21 Oct 14:49:57 14:54:21 35° 263° (W) 14:58:54 ?
TMSAT-1 21 Oct 14:52:53 14:58:08 71° 74° (ENE) 15:03:26 436.925 FM
Uosat F 21 Oct 14:56:19 14:57:45 11° 59° (ENE) 14:59:10 435.120 FM
SO-50 21 Oct 15:08:43 15:12:28 25° 313° (NW) 15:16:19 436.795 FM
UOSAT-12 21 Oct 15:11:40 15:15:58 39° 115° (ESE) 15:20:20 437.025 FM, 437.400 FM
Sapphire 21 Oct 15:15:23 15:19:58 28° 252° (WSW) 15:24:32 437.095 MHz 1200 baud AX-25 AFSK
AO-27 21 Oct 15:27:52 15:31:43 21° 267° (W) 15:35:36 436.795 MHz FM
AO-7 21 Oct 15:31:43 15:39:36 52° 65° (ENE) 15:47:31 29.400 - 29.500 MHz
PCSat 21 Oct 15:39:27 15:42:42 16° 256° (WSW) 15:45:56 145.825 MHz
ISS 21 Oct 16:14:32 16:16:36 15° 343° (NNW) 16:18:40 145.800 FM
JAS-2 21 Oct 16:19:07 16:23:18 20° 59° (ENE) 16:27:50 435.800 - 435.900 CW/SSB, 435.910 FM
Gurwin Techsat 1B 21 Oct 16:22:25 16:24:54 13° 270° (W) 16:27:24 435.225 FM
Uosat F 21 Oct 16:30:44 16:35:45 89° 256° (WSW) 16:40:49 435.120 FM
TMSAT-1 21 Oct 16:36:01 16:38:33 13° 270° (W) 16:41:06 436.925 FM
KITSAT 1 21 Oct 16:45:18 16:47:39 11° 341° (NNW) 16:50:01 435.175 FM
UOSAT-12 21 Oct 16:52:20 16:56:13 26° 313° (NW) 17:00:11 437.025 FM, 437.400 FM
Hamsat 21 Oct 16:55:14 16:58:08 18° 67° (ENE) 17:01:01 145.90 MHz
AO-40 21 Oct 17:00:40 23:19:36 43° 184° (S) 05:12:05 Beacon 2401.320
Saudisat 1A 21 Oct 17:08:46 17:13:03 47° 54° (NE) 17:17:18 436.775 MHz
AO-7 21 Oct 17:25:15 17:32:34 35° 262° (W) 17:39:57 29.400 - 29.500 MHz
ISS 21 Oct 17:53:27 17:54:26 11° 4° (N) 17:55:25 145.800 FM
OPAL 21 Oct 18:00:20 18:05:16 61° 103° (ESE) 18:10:08 ?
JAS-2 21 Oct 18:02:01 18:07:38 63° 260° (W) 18:14:03 435.800 - 435.900 CW/SSB, 435.910 FM
Hamsat 21 Oct 18:29:54 18:33:48 36° 262° (W) 18:37:42 145.90 MHz
Saudisat 1A 21 Oct 18:49:20 18:52:15 17° 250° (WSW) 18:55:09 436.775 MHz
SO-67 21 Oct 19:03:48 19:07:12 66° 76° (ENE) 19:10:37 435.3500 MHz FM
ISS 21 Oct 19:29:24 19:32:06 22° 24° (NNE) 19:34:48 145.800 FM
STRAND 1 21 Oct 19:38:50 19:43:59 67° 102° (ESE) 19:49:05 ?
OPAL 21 Oct 19:40:38 19:43:38 16° 300° (WNW) 19:46:36 ?
HO-68 21 Oct 20:05:27 20:11:55 39° 64° (ENE) 20:18:24 435.675 MHz FM
Oscar 11 21 Oct 20:34:26 20:36:26 13° 64° (ENE) 20:38:26 145.825 FM, Beacon 2401.500 USB
KITSAT 1 21 Oct 20:39:57 20:46:40 28° 42° (NE) 20:53:21 435.175 FM
ISS 21 Oct 21:05:44 21:09:01 56° 221° (SW) 21:12:17 145.800 FM
ZACube-1 21 Oct 21:12:59 21:15:45 16° 65° (ENE) 21:18:29 437.345 MHz
STRAND 1 21 Oct 21:19:40 21:22:35 15° 299° (WNW) 21:25:29 ?
UKube-1 21 Oct 21:23:10 21:27:23 51° 73° (ENE) 21:31:37 145.840 MHz, 145.915 MHz
HO-68 21 Oct 21:52:54 21:59:31 40° 262° (W) 22:06:12 435.675 MHz FM
FUNcube-1 21 Oct 21:56:41 22:01:03 44° 72° (ENE) 22:05:23 145.950 - 145.970 MHz USB
SO-50 21 Oct 21:59:47 22:04:06 31° 49° (NE) 22:08:26 436.795 FM
Oscar 11 21 Oct 22:07:52 22:12:07 57° 260° (W) 22:16:24 145.825 FM, Beacon 2401.500 USB
RS-15 21 Oct 22:24:09 22:34:44 55° 112° (ESE) 22:45:11 29.354 - 29.394 USB, Beacon 29.352 USB
KITSAT 1 21 Oct 22:34:48 22:42:53 77° 244° (WSW) 22:50:55 435.175 FM
ZACube-1 21 Oct 22:47:13 22:51:42 52° 260° (W) 22:56:11 437.345 MHz
UKube-1 21 Oct 23:01:45 23:03:51 13° 268° (W) 23:05:58 145.840 MHz, 145.915 MHz
FUNcube-1 21 Oct 23:34:33 23:37:36 17° 267° (W) 23:40:38 145.950 - 145.970 MHz USB
SO-50 21 Oct 23:40:18 23:44:39 33° 246° (WSW) 23:49:00 436.795 FM
UOSAT-12 21 Oct 23:42:03 23:46:12 29° 49° (NE) 23:50:17 437.025 FM, 437.400 FM
MaSat-1 22 Oct 00:07:01 00:11:00 37° 110° (ESE) 00:14:40 437.345 MHz
KITSAT 1 22 Oct 00:33:27 00:36:55 13° 261° (W) 00:40:24 435.175 FM
RS-15 22 Oct 00:36:56 00:47:17 45° 315° (NW) 00:57:41 29.354 - 29.394 USB, Beacon 29.352 USB
UOSAT-12 22 Oct 01:22:08 01:26:20 33° 246° (WSW) 01:30:28 437.025 FM, 437.400 FM
MaSat-1 22 Oct 01:43:49 01:46:48 19° 303° (WNW) 01:49:36 437.345 MHz
JAS-1B 22 Oct 01:47:28 01:53:22 32° 98° (E) 02:00:10 435.800 - 435.900 CW/SSB
Oscar 19 22 Oct 01:51:30 01:56:08 34° 97° (E) 02:00:45 437.125 CW, 437.150 USB
AO-27 22 Oct 02:02:01 02:05:27 17° 92° (E) 02:08:51 436.795 MHz FM
Oscar 16 22 Oct 02:36:22 02:41:31 86° 284° (WNW) 02:46:38 437.025 USB, Beacon 2401.1428
Uribyol 2 22 Oct 02:50:09 02:55:16 53° 100° (E) 03:00:19 436.500 FM
ITAMSAT 1 22 Oct 02:55:19 03:00:28 56° 101° (E) 03:05:35 435.822 SSB
RS-15 22 Oct 02:56:15 03:03:33 19° 347° (NNW) 03:10:55 29.354 - 29.394 USB, Beacon 29.352 USB
Gurwin Techsat 1B 22 Oct 02:56:39 03:01:19 30° 96° (E) 03:05:57 435.225 FM
AO-Echo 22 Oct 02:57:04 03:02:24 79° 103° (ESE) 03:07:43 ?
TMSAT-1 22 Oct 03:10:01 03:14:39 30° 96° (E) 03:19:15 436.925 FM
Oscar 19 22 Oct 03:31:03 03:35:20 28° 293° (WNW) 03:39:36 437.125 CW, 437.150 USB
AO-7 22 Oct 03:36:16 03:40:48 15° 90° (E) 03:45:18 29.400 - 29.500 MHz
JAS-1B 22 Oct 03:37:55 03:44:01 45° 290° (WNW) 03:51:10 435.800 - 435.900 CW/SSB
OPAL 22 Oct 03:38:58 03:41:18 13° 58° (ENE) 03:43:36 ?
AO-27 22 Oct 03:40:10 03:45:16 55° 288° (WNW) 03:50:21 436.795 MHz FM
Sapphire 22 Oct 04:12:38 04:17:40 42° 111° (ESE) 04:22:45 437.095 MHz 1200 baud AX-25 AFSK
Oscar 16 22 Oct 04:18:59 04:20:02 11° 301° (WNW) 04:21:05 437.025 USB, Beacon 2401.1428
Uribyol 2 22 Oct 04:30:42 04:34:18 19° 297° (WNW) 04:37:52 436.500 FM
PCSat 22 Oct 04:35:08 04:40:30 72° 116° (ESE) 04:45:55 145.825 MHz
ITAMSAT 1 22 Oct 04:36:00 04:39:29 18° 297° (WNW) 04:42:59 435.822 SSB
Gurwin Techsat 1B 22 Oct 04:36:32 04:41:14 33° 292° (WNW) 04:45:55 435.225 FM
AO-Echo 22 Oct 04:37:51 04:40:28 14° 299° (WNW) 04:43:05 ?
Uosat F 22 Oct 04:39:43 04:44:08 30° 97° (E) 04:48:31 435.120 FM
TMSAT-1 22 Oct 04:49:50 04:54:32 33° 292° (WNW) 04:59:13 436.925 FM
JAS-2 22 Oct 05:11:51 05:17:56 25° 91° (E) 05:24:01 435.800 - 435.900 CW/SSB, 435.910 FM
RS-15 22 Oct 05:13:19 05:21:39 23° 24° (NNE) 05:30:09 29.354 - 29.394 USB, Beacon 29.352 USB
OPAL 22 Oct 05:14:19 05:19:29 82° 254° (WSW) 05:24:38 ?
STRAND 1 22 Oct 05:19:15 05:20:38 11° 59° (ENE) 05:22:01 ?
AO-7 22 Oct 05:26:16 05:34:38 84° 107° (ESE) 05:42:59 29.400 - 29.500 MHz
Sapphire 22 Oct 05:56:34 06:01:12 29° 309° (NW) 06:05:53 437.095 MHz 1200 baud AX-25 AFSK
Hamsat 22 Oct 06:16:01 06:19:57 38° 98° (E) 06:23:53 145.90 MHz
Uosat F 22 Oct 06:18:27 06:22:51 31° 292° (WNW) 06:27:13 435.120 FM
PCSat 22 Oct 06:20:44 06:24:29 19° 315° (NW) 06:28:15 145.825 MHz
STRAND 1 22 Oct 06:53:53 06:59:00 88° 76° (ENE) 07:04:11 ?
JAS-2 22 Oct 06:55:43 07:03:23 70° 287° (WNW) 07:11:09 435.800 - 435.900 CW/SSB, 435.910 FM
Saudisat 1A 22 Oct 07:16:22 07:18:42 14° 109° (ESE) 07:21:03 436.775 MHz
AO-7 22 Oct 07:20:29 07:26:27 23° 306° (NW) 07:32:26 29.400 - 29.500 MHz
RS-15 22 Oct 07:25:46 07:36:51 63° 53° (NE) 07:48:21 29.354 - 29.394 USB, Beacon 29.352 USB
Hamsat 22 Oct 07:52:53 07:55:36 17° 293° (WNW) 07:58:19 145.90 MHz
SO-67 22 Oct 08:00:37 08:04:05 90° 268° (W) 08:07:31 435.3500 MHz FM
JAS-2 22 Oct 08:43:15 08:47:06 15° 305° (NW) 08:51:01 435.800 - 435.900 CW/SSB, 435.910 FM
Saudisat 1A 22 Oct 08:53:29 08:57:47 56° 305° (NW) 09:02:08 436.775 MHz
HO-68 22 Oct 09:20:56 09:27:42 42° 99° (E) 09:34:24 435.675 MHz FM
RS-15 22 Oct 09:38:46 09:48:38 38° 253° (WSW) 09:58:55 29.354 - 29.394 USB, Beacon 29.352 USB
PANSAT 22 Oct 09:40:44 09:42:45 14° 173° (S) 09:44:47 not established
MaSat-1 22 Oct 09:54:32 09:57:07 43° 62° (ENE) 09:59:28 437.345 MHz
Oscar 11 22 Oct 09:56:39 10:00:18 26° 96° (E) 10:03:55 145.825 FM, Beacon 2401.500 USB
ZACube-1 22 Oct 10:37:44 10:41:32 31° 96° (E) 10:45:15 437.345 MHz
UKube-1 22 Oct 10:48:02 10:52:25 74° 285° (WNW) 10:56:46 145.840 MHz, 145.915 MHz
HO-68 22 Oct 11:08:48 11:15:15 37° 296° (WNW) 11:21:42 435.675 MHz FM
KITSAT 1 22 Oct 11:10:48 11:15:15 16° 100° (E) 11:19:41 435.175 FM
PANSAT 22 Oct 11:20:05 11:22:13 14° 186° (S) 11:24:20 not established
FUNcube-1 22 Oct 11:22:51 11:27:09 78° 284° (WNW) 11:31:19 145.950 - 145.970 MHz USB
Oscar 11 22 Oct 11:32:50 11:36:23 25° 291° (WNW) 11:39:55 145.825 FM, Beacon 2401.500 USB
ZACube-1 22 Oct 12:14:31 12:17:45 21° 293° (WNW) 12:20:55 437.345 MHz
Oscar 16 22 Oct 12:15:50 12:18:52 16° 62° (ENE) 12:21:53 437.025 USB, Beacon 2401.1428
JAS-1B 22 Oct 12:34:43 12:39:04 22° 63° (ENE) 12:43:15 435.800 - 435.900 CW/SSB
AO-Echo 22 Oct 12:35:07 12:36:11 11° 59° (ENE) 12:37:14 ?
